User: anonymous   Login
Location: Theydon Bois
(51.6750°N, 0.1050°E)
Time: 02:59:53
(UTC+00:00)
Language:

NOSS 3-4 (A) - Orbit

View from above orbital plane
View from above orbital plane
View from above satellite
View from above satellite

Ground track
Ground track

The orbit data is extracted from the following two-line orbital elements,

1 31701U 07027A   18049.22663515 0.00000000  00000-0  00000-0 0    03
2 31701  63.4002 176.0932 0213000  22.6255 337.3745 13.40746706    05
Epoch (UTC): 18 February 2018 05:26:21
Eccentricity: 0.0213000
inclination: 63.4002°
perigee height: 947 km
apogee height: 1266 km
right ascension of ascending node: 176.0932°
argument of perigee: 22.6255°
revolutions per day: 13.40746706
mean anomaly at epoch: 337.3745°
orbit number at epoch: 0

The dashed part of the orbit path shows where the satellite is in the earth's shadow,  

DLR